Oakland, CA

9:28 AM PST on December 12, 2019 (GMT -0800)
Metro Oakland International

Weather History for KOAK - October, 2019

Change the Weather History Date:

Wednesday, October 9, 2019

  Actual Average Record
Temperature  
Mean Temperature 60 °F 62 °F  
Max Temperature 72 °F 71 °F 87 °F (1958)
Min Temperature 48 °F 52 °F 43 °F (1949)
Degree Days  
Heating Degree Days 5 4  
Month to date heating degree days 26 31  
Since 1 July heating degree days 56 231  
Cooling Degree Days 0 1  
Month to date cooling degree days 9 9  
Year to date cooling degree days 373 134  
Growing Degree Days 10 (Base 50)    
Moisture  
Dew Point 46 °F    
Average Humidity 62    
Maximum Humidity 89    
Minimum Humidity 35    
Precipitation  
Precipitation 0.00 in 0.03 in 0.85 in (1972)
Month to date precipitation 0.00 0.20  
Year to date precipitation 15.94 13.70  
Sea Level Pressure  
Sea Level Pressure 29.90 in    
Wind  
Wind Speed 7 mph (WNW)    
Max Wind Speed 17 mph    
Max Gust Speed 24 mph    
Visibility 10 miles    
Events      
T = Trace of Precipitation, MM = Missing Value Source: NWS Daily Summary

Daily Weather History Graph

Daily Weather History Graph

Search for Another Location

Airport or City:

Astronomy

Oct. 09, 2019 Rise Set
Actual Time 7:11 AM PDT 6:40 PM PDT
Civil Twilight 6:45 AM PDT 7:06 PM PDT
Nautical Twilight 6:14 AM PDT 7:36 PM PDT
Astronomical Twilight 5:44 AM PDT 8:07 PM PDT
Moon 5:09 PM PDT (10/9) 3:09 AM PDT (10/9)
Length of Visible Light 12h 21m
Length of Day
11h 28m
Waxing Gibbous, 85% of the Moon is Illuminated
Oct 9
Waxing Gibbous
Oct 13
Full
Oct 21
Last Quarter
Oct 27
New
Nov 4
First Quarter

Hourly Weather History & Observations

Time (PDT) Temp. Dew Point Humidity Pressure Visibility Wind Dir Wind Speed Gust Speed Precip Events Conditions
12:53 AM 60.1 °F 52.0 °F 75% 29.86 in 10.0 mi West 10.4 mph - N/A   Clear
1:53 AM 59.0 °F 51.1 °F 75% 29.86 in 10.0 mi West 9.2 mph - N/A   Clear
2:53 AM 54.0 °F 46.9 °F 77% 29.86 in 10.0 mi NNE 3.5 mph - N/A   Clear
3:53 AM 57.9 °F 48.0 °F 70% 29.86 in 10.0 mi WSW 4.6 mph - N/A   Clear
4:53 AM 52.0 °F 45.0 °F 77% 29.87 in 10.0 mi ESE 5.8 mph - N/A   Partly Cloudy
5:53 AM 48.9 °F 44.1 °F 83% 29.88 in 10.0 mi East 5.8 mph - N/A   Partly Cloudy
6:53 AM 50.0 °F 45.0 °F 83% 29.90 in 10.0 mi NE 5.8 mph - N/A   Clear
7:53 AM 52.0 °F 48.0 °F 86% 29.91 in 10.0 mi ENE 3.5 mph - N/A   Clear
8:53 AM 59.0 °F 51.1 °F 75% 29.93 in 10.0 mi Calm Calm - N/A   Clear
9:53 AM 61.0 °F 48.0 °F 62% 29.95 in 10.0 mi Variable 3.5 mph - N/A   Clear
10:53 AM 63.0 °F 48.9 °F 60% 29.95 in 10.0 mi West 8.1 mph - N/A   Clear
11:53 AM 66.0 °F 43.0 °F 43% 29.93 in 10.0 mi West 10.4 mph - N/A   Clear
12:53 PM 68.0 °F 43.0 °F 40% 29.91 in 10.0 mi WNW 10.4 mph - N/A   Clear
1:53 PM 69.1 °F 46.0 °F 44% 29.90 in 10.0 mi WNW 10.4 mph - N/A   Clear
2:53 PM 72.0 °F 42.1 °F 34% 29.88 in 10.0 mi West 12.7 mph - N/A   Clear
3:53 PM 71.1 °F 45.0 °F 39% 29.87 in 10.0 mi West 13.8 mph - N/A   Clear
4:53 PM 69.1 °F 45.0 °F 42% 29.87 in 10.0 mi West 12.7 mph - N/A   Clear
5:53 PM 66.9 °F 42.1 °F 40% 29.87 in 10.0 mi West 15.0 mph - N/A   Clear
6:53 PM 64.0 °F 45.0 °F 50% 29.88 in 10.0 mi WNW 8.1 mph - N/A   Clear
7:53 PM 61.0 °F 46.0 °F 58% 29.89 in 10.0 mi NW 5.8 mph - N/A   Clear
8:53 PM 60.1 °F 48.9 °F 67% 29.90 in 10.0 mi NNW 4.6 mph - N/A   Clear
9:53 PM 59.0 °F 48.0 °F 67% 29.91 in 10.0 mi NW 8.1 mph - N/A   Clear
10:53 PM 60.1 °F 48.9 °F 67% 29.92 in 10.0 mi NW 6.9 mph - N/A   Clear
11:53 PM 59.0 °F 44.1 °F 58% 29.93 in 10.0 mi NW 5.8 mph - N/A   Clear